2023-007G (55254 NORAD) Tracking and Keplerian Element Data

This shows tracking and keplerian element data for the satellite.

Feedback or suggestion? Click here.




ElementValue
Catalog55254
Name2023-007G
Epoch Orbit1695
Epoch Day126.45761796
Epoch Year2023
RAAN199.1224
Inclination97.3626
Eccentricity0.0005442
Argument of Perigee213.2577
Mean Anonmoly271.3715
Mean Motion15.25816524
Decay Rate0.00015365
L11 55254U 23007G 23126.45761796 .00015365 00000+0 60278-3 0 9997
L22 55254 97.3626 199.1224 0005442 213.2577 271.3715 15.25816524 16952



Live tracking and technical data element details for 2023-007G (NORAD 55254). 2023-007G can be tracked NOW for your location showing map with azimuth and elevation plus other details from your city location.







IsCatalogInMostPopularTable: catalog: 55254, numindb: -1

Insert: records affected: 1


GetName: 55254 2023-007G

Hit Count: inserted at: Mon, 05 Jun 2023 19:09:54 GMT